Weather in Tangerang Selatan

Indonesia     6°16′37″S   106°40′10″E
temp.,
°C
wind,
m/s
gust,
m/s
humid.,
%
clouds,
%
prec.,
mm/h
press.,
hPa
HPBL,
m
20 april, tue
tue2001:00+26nw1181100 7.6 101053
04:00+25ssw118590 3.0 101071
07:00+26sw118361 3.5 1011153
10:00+29ne22654 3.9 1012823
13:00+31n325927 5.3 10101244
16:00+30nne335817 1.8 10081098
19:00+28ne236816 2.1 1011336
22:00+28e127415 0.5 1012141
21 april, wed
wed2101:00+27s117914 2.1 1010119
04:00+26sse12830 0.0 1010131
07:00+26se12795 0.1 1011209
10:00+30ene22614 0.0 1012993
13:00+32nne325217 0.0 10091529
16:00+31n435975 0.3 1008849
19:00+29n126768 1.1 1010616
22:00+28e117129 1.1 1012264
22 april, thu
thu2201:00+27sse11767 2.6 1010161
04:00+26se12826 2.9 1010104
07:00+26se11806 3.2 1011211
10:00+30ene1163100 0.0 1012929
13:00+32n225244 0.0 10081597
16:00+31n545827 0.0 1007849
19:00+29nnw226812 0.8 1010575
22:00+28n117542 2.1 1012170
23 april, fri
fri2301:00+27ssw117931 2.7 101097
04:00+26ssw118378 0.1 100986
07:00+26sse118197 0.2 1011209
10:00+30n116226 0.0 10111005
13:00+33n224991 0.0 10081725
16:00+31n545999 0.0 1007839
19:00+28nw3472100 1.9 1010469
22:00+27s1280100 1.6 1011292
24 april, sat
sat2401:00+26s228399 4.4 101082
04:00+26sw1284100 0.7 1010132
07:00+26sw118188 0.9 1012204
10:00+30se116394 0.0 1012874
13:00+32n215356 0.2 10091438
16:00+29n336765 2.1 1008610
19:00+27ne2278100 5.9 1010144
22:00+27ene1178100 0.2 1012161